User: anonymous   Login
Location: Chagrin Falls Park
(41.4139°N, 81.3865°W)
Time: 00:01:29
(UTC+00:00)
Language:

STARLINK-2647 - Orbit

View from above orbital plane
View from above orbital plane
View from above satellite
View from above satellite

Ground track
Ground track

The orbit data is extracted from the following two-line orbital elements,

1 48658C 21044W   21300.76987620  .00009135  00000-0  61216-3 0  3006
2 48658  53.0560  77.0055 0001426  95.3357  50.2181 15.06384259    12
Epoch (UTC): 27 October 2021 18:28:37
Eccentricity: 0.0001426
inclination: 53.0560°
perigee height: 546 km
apogee height: 548 km
right ascension of ascending node: 77.0055°
argument of perigee: 95.3357°
revolutions per day: 15.06384259
mean anomaly at epoch: 50.2181°
orbit number at epoch: 1

The dashed part of the orbit path shows where the satellite is in the earth's shadow,  

DLR